This is the latest recevied weather packets stored in our database for station/object YT1XN-8. If no packets are shown the sender has not sent any weather packets the latest 10 day(s).
| Time | Temp. | Humidity | Pressure | Rain* | Wind** | Luminosity | Snow |
|---|---|---|---|---|---|---|---|
| 1777554882 | 14.44° C | 46% | 1025.2 hPa | 0 mm | - | - | - |
| 1777554644 | 15° C | 45% | 1025.3 hPa | 0 mm | - | - | - |
| 1777554222 | 16.11° C | 43% | 1025.2 hPa | 0 mm | - | - | - |
| 1777554043 | 16.11° C | 44% | 1025.2 hPa | 0 mm | - | - | - |
| 1777553562 | 16.11° C | 47% | 1025.3 hPa | 0 mm | - | - | - |
| 1777553443 | 16.11° C | 47% | 1025.4 hPa | 0 mm | - | - | - |
| 1777552902 | 15.56° C | 48% | 1025.5 hPa | 0 mm | - | - | - |
| 1777552843 | 15.56° C | 47% | 1025.5 hPa | 0 mm | - | - | - |
| 1777552242 | 15° C | 49% | 1025.6 hPa | 0 mm | - | - | - |
| 1777551644 | 14.44° C | 50% | 1025.5 hPa | 0 mm | - | - | - |
| 1777551582 | 14.44° C | 48% | 1025.6 hPa | 0 mm | - | - | - |
| 1777551042 | 15.56° C | 47% | 1025.7 hPa | 0 mm | - | - | - |
| 1777550922 | 15.56° C | 47% | 1025.7 hPa | 0 mm | - | - | - |
| 1777550442 | 15° C | 47% | 1025.8 hPa | 0 mm | - | - | - |
| 1777550262 | 15° C | 51% | 1025.8 hPa | 0 mm | - | - | - |
| 1777549842 | 15° C | 47% | 1025.9 hPa | 0 mm | - | - | - |
| 1777549601 | 15.56° C | 46% | 1025.8 hPa | 0 mm | - | - | - |
| 1777549244 | 15.56° C | 51% | 1025.9 hPa | 0 mm | - | - | - |
| 1777548941 | 15.56° C | 50% | 1025.9 hPa | 0 mm | - | - | - |
| 1777548643 | 15° C | 51% | 1026 hPa | 0 mm | - | - | - |
| 1777548282 | 14.44° C | 51% | 1026 hPa | 0 mm | - | - | - |
| 1777548043 | 14.44° C | 52% | 1025.9 hPa | 0 mm | - | - | - |
| 1777547621 | 14.44° C | 52% | 1025.9 hPa | 0 mm | - | - | - |
| 1777547443 | 14.44° C | 53% | 1025.9 hPa | 0 mm | - | - | - |
| 1777546961 | 14.44° C | 58% | 1025.9 hPa | 0 mm | - | - | - |
* Rain latest hour (hover to see other rain measurements)
** Current wind speed in m/s (hover to see current wind gust speed)